Weather in Logovsky

Russia / Volgograd Oblast     48°25′38″N   43°21′50″E
temp.,
°C
wind,
m/s
gust,
m/s
humid.,
%
clouds,
%
prec.,
mm/h
press.,
hPa
HPBL,
m
16 may, sun
sun1600:00+18se345292 0.0 101333
03:00+17se3452100 0.0 101444
06:00+16ese3559100 0.0 101498
09:00+21se464797 0.0 1014235
12:00+25se693651 0.0 1014708
15:00+26se69355 0.0 10121103
18:00+25ese574510 0.0 1010102
21:00+20ese57536 0.0 101172
17 may, mon
mon1700:00+18ese511517 0.0 1011152
03:00+17e5125015 0.0 1011154
06:00+17e6135312 0.0 1011190
09:00+23ese813425 0.0 1011461
12:00+27se9143096 0.0 10101373
15:00+27se8123264 0.0 10091462
18:00+25se6113872 0.0 1009169
21:00+20ese47471 0.0 101074
18 may, tue
tue1800:00+18ese48435 0.0 1010109
03:00+17e4746100 0.0 100990
06:00+17se1254100 0.0 101037
09:00+20sse234676 0.0 1009242
12:00+22ssw4545100 0.0 1010413
15:00+22s455393 0.0 1010473
18:00+22wsw5762100 0.0 1010225
21:00+19wnw5871100 0.0 1011173
19 may, wed
wed1900:00+17wnw4678100 0.0 1012116
03:00+17wnw587879 0.0 1012187
06:00+16wnw358038 0.0 1013131
09:00+19wsw56680 0.0 1014497
12:00+22wsw44607 0.0 1013815
15:00+23sw335419 0.0 10131018
18:00+21ssw56674 0.0 1013179
21:00+19sw33732 0.0 101324
20 may, thu
thu2000:00+18ese117598 0.0 101211
03:00+18ese3470100 0.0 101240
06:00+18w2274100 0.1 101375
09:00+19ene2272100 0.1 1014125
12:00+21e2267100 0.0 1014382
15:00+23e235998 0.0 1013357
18:00+23ene465997 0.0 1012102
21:00+20n91377100 0.2 1013192